Weather History for Cody, WY

Change the Weather History Date:

Tuesday, October 16, 2012

  Actual Average Record
Temperature  
Mean Temperature 55 °F -  
Max Temperature 66 °F 58 °F 79 °F (1926)
Min Temperature 44 °F 34 °F 14 °F (1930)
Degree Days  
Heating Degree Days 10    
Growing Degree Days 5 (Base 50)    
Moisture  
Dew Point 32 °F    
Average Humidity 43    
Maximum Humidity 82    
Minimum Humidity 22    
Precipitation  
Precipitation 0.13 in - - ()
Sea Level Pressure  
Sea Level Pressure 29.65 in    
Wind  
Wind Speed 12 mph (West)    
Max Wind Speed 31 mph    
Max Gust Speed 48 mph    
Visibility 10 miles    
Events      
Averages and records for this station are not official NWS values.
T = Trace of Precipitation, MM = Missing Value Source: NWS Daily Summary

Daily Weather History Graph

Daily Weather History Graph

Search for Another Location

Airport:

Trip Planner

Search our weather history database for the weather conditions in past years. The results will help you decide how hot, cold, wet, or windy it might be!

Date:

Astronomy

Oct. 16, 2012 Rise Set
Actual Time 7:33 AM MDT 6:29 PM MDT
Civil Twilight 7:03 AM MDT 6:58 PM MDT
Nautical Twilight 6:30 AM MDT 7:32 PM MDT
Astronomical Twilight 5:56 AM MDT 8:05 PM MDT
Moon 9:05 AM MDT (10/16) 7:10 PM MDT (10/16)
Length of Visible Light 11h 54m
Length of Day
10h 55m
New Moon, 2% of the Moon is Illuminated
Oct 16
New Moon
Oct 21
First Quarter
Oct 29
Full
Nov 6
Last Quarter
Nov 13
New

Hourly Weather History & Observations

Time (MDT) Temp. Windchill Dew Point Humidity Pressure Visibility Wind Dir Wind Speed Gust Speed Precip Events Conditions
12:15 AM 48.2 °F - 37.4 °F 66% 29.86 in 10.0 mi SSE 6.9 mph - N/A   Clear
12:56 AM 55.4 °F - 35.6 °F 47% 29.85 in 10.0 mi West 6.9 mph - N/A   Clear
1:15 AM 57.2 °F - 35.6 °F 44% 29.84 in 10.0 mi West 8.1 mph - N/A   Clear
1:35 AM 59.0 °F - 35.6 °F 42% 29.83 in 10.0 mi WSW 16.1 mph 28.8 mph N/A   Clear
1:55 AM 59.0 °F - 33.8 °F 39% 29.82 in 10.0 mi WSW 15.0 mph 27.6 mph N/A   Clear
2:35 AM 59.0 °F - 33.8 °F 39% 29.79 in 10.0 mi WSW 13.8 mph 24.2 mph N/A   Clear
2:55 AM 60.8 °F - 33.8 °F 36% 29.80 in 10.0 mi WSW 17.3 mph 28.8 mph N/A   Clear
3:15 AM 59.0 °F - 33.8 °F 39% 29.79 in 10.0 mi WSW 11.5 mph 24.2 mph N/A   Clear
3:35 AM 59.0 °F - 33.8 °F 39% 29.77 in 10.0 mi WSW 11.5 mph 23.0 mph N/A   Clear
3:55 AM 59.0 °F - 32.0 °F 36% 29.76 in 10.0 mi WSW 13.8 mph 18.4 mph N/A   Clear
4:15 AM 59.0 °F - 32.0 °F 36% 29.76 in 10.0 mi WSW 15.0 mph 24.2 mph N/A   Clear
4:35 AM 59.0 °F - 32.0 °F 36% 29.74 in 10.0 mi WSW 15.0 mph 24.2 mph N/A   Clear
4:55 AM 59.0 °F - 33.8 °F 39% 29.74 in 10.0 mi WSW 9.2 mph 20.7 mph N/A   Clear
5:15 AM 59.0 °F - 32.0 °F 36% 29.73 in 10.0 mi SW 13.8 mph 20.7 mph N/A   Clear
5:35 AM 59.0 °F - 33.8 °F 39% 29.72 in 10.0 mi SW 15.0 mph 18.4 mph N/A   Clear
6:15 AM 59.0 °F - 33.8 °F 39% 29.70 in 10.0 mi WSW 15.0 mph 24.2 mph N/A   Mostly Cloudy
6:35 AM 59.0 °F - 35.6 °F 42% 29.68 in 10.0 mi WSW 20.7 mph 29.9 mph N/A   Partly Cloudy
6:55 AM 60.8 °F - 35.6 °F 39% 29.68 in 10.0 mi WSW 16.1 mph 23.0 mph N/A   Mostly Cloudy
7:15 AM 60.8 °F - 35.6 °F 39% 29.66 in 10.0 mi WSW 12.7 mph 24.2 mph N/A   Partly Cloudy
7:35 AM 59.0 °F - 37.4 °F 45% 29.66 in 10.0 mi WSW 12.7 mph 20.7 mph N/A   Scattered Clouds
7:55 AM 59.0 °F - 37.4 °F 45% 29.66 in 10.0 mi SSW 17.3 mph 24.2 mph N/A   Overcast
8:15 AM 59.0 °F - 37.4 °F 45% 29.64 in 10.0 mi SE 5.8 mph 19.6 mph N/A   Overcast
8:35 AM 57.2 °F - 37.4 °F 48% 29.63 in 10.0 mi South 12.7 mph - N/A   Overcast
8:55 AM 57.2 °F - 37.4 °F 48% 29.61 in 10.0 mi WSW 11.5 mph 18.4 mph N/A   Scattered Clouds
9:15 AM 59.0 °F - 37.4 °F 45% 29.60 in 10.0 mi West 12.7 mph 23.0 mph N/A   Mostly Cloudy
9:35 AM 60.8 °F - 37.4 °F 42% 29.59 in 10.0 mi WSW 13.8 mph 24.2 mph N/A   Mostly Cloudy
9:55 AM 60.8 °F - 37.4 °F 42% 29.59 in 10.0 mi WSW 10.4 mph 23.0 mph N/A   Partly Cloudy
10:35 AM 60.8 °F - 37.4 °F 42% 29.56 in 10.0 mi East 5.8 mph - N/A   Overcast
10:55 AM 62.6 °F - 37.4 °F 39% 29.58 in 10.0 mi WSW 3.5 mph - N/A   Overcast
11:15 AM 60.8 °F - 41.0 °F 48% 29.57 in 10.0 mi West 10.4 mph - N/A   Overcast
11:36 AM 62.6 °F - 39.2 °F 42% 29.53 in 10.0 mi SW 12.7 mph 19.6 mph N/A   Partly Cloudy
11:55 AM 62.6 °F - 39.2 °F 42% 29.51 in 10.0 mi WSW 13.8 mph 25.3 mph N/A   Clear
12:15 PM 62.6 °F - 39.2 °F 42% 29.50 in 10.0 mi WSW 13.8 mph 20.7 mph N/A   Clear
12:35 PM 64.4 °F - 39.2 °F 40% 29.50 in 10.0 mi WSW 9.2 mph 19.6 mph N/A   Clear
12:55 PM 66.2 °F - 39.2 °F 37% 29.48 in 10.0 mi WSW 6.9 mph - N/A   Clear
1:15 PM 66.2 °F - 39.2 °F 37% 29.48 in 10.0 mi WNW 18.4 mph 27.6 mph N/A   Scattered Clouds
1:35 PM 66.2 °F - 37.4 °F 35% 29.47 in 10.0 mi West 12.7 mph 28.8 mph N/A   Mostly Cloudy
1:55 PM 64.4 °F - 37.4 °F 37% 29.50 in 10.0 mi West 24.2 mph 28.8 mph N/A   Overcast
2:15 PM 60.8 °F - 41.0 °F 48% 29.48 in 10.0 mi North 10.4 mph - N/A   Overcast
2:35 PM 55.4 °F - 44.6 °F 67% 29.49 in 9.0 mi WSW 16.1 mph 31.1 mph N/A   Overcast
2:55 PM 50.0 °F - 42.8 °F 76% 29.55 in 10.0 mi NNW 31.1 mph 41.4 mph 0.05 in   Overcast
3:15 PM 48.2 °F - 42.8 °F 82% 29.57 in 10.0 mi West 8.1 mph 19.6 mph 0.07 in   Overcast
3:55 PM 51.8 °F - 42.8 °F 71% 29.49 in 10.0 mi NNW 9.2 mph - 0.08 in   Mostly Cloudy
4:15 PM 53.6 °F - 42.8 °F 67% 29.47 in 10.0 mi West 15.0 mph 28.8 mph N/A   Partly Cloudy
4:55 PM 48.2 °F - 33.8 °F 58% 29.56 in 10.0 mi NW 27.6 mph 48.3 mph N/A   Mostly Cloudy
5:35 PM 51.8 °F - 32.0 °F 47% 29.55 in 10.0 mi West 6.9 mph - N/A   Partly Cloudy
5:55 PM 51.8 °F - 35.6 °F 54% 29.54 in 10.0 mi WSW 15.0 mph 26.5 mph N/A   Clear
6:15 PM 50.0 °F - 35.6 °F 58% 29.53 in 10.0 mi West 13.8 mph 20.7 mph N/A   Clear
6:35 PM 51.8 °F - 30.2 °F 44% 29.57 in 10.0 mi West 17.3 mph 25.3 mph N/A   Clear
6:55 PM 51.8 °F - 28.4 °F 41% 29.58 in 10.0 mi NW 8.1 mph - N/A   Clear
7:15 PM 51.8 °F - 24.8 °F 35% 29.60 in 10.0 mi NW 9.2 mph 17.3 mph N/A   Clear
7:35 PM 48.2 °F - 26.6 °F 43% 29.62 in 10.0 mi NW 8.1 mph - N/A   Clear
7:55 PM 48.2 °F - 26.6 °F 43% 29.63 in 10.0 mi WNW 18.4 mph 27.6 mph N/A   Clear
8:15 PM 48.2 °F - 24.8 °F 40% 29.64 in 10.0 mi WNW 15.0 mph 25.3 mph N/A   Clear
8:55 PM 48.2 °F - 19.4 °F 32% 29.68 in 10.0 mi WNW 12.7 mph 26.5 mph N/A   Partly Cloudy
9:15 PM 48.2 °F - 21.2 °F 34% 29.70 in 10.0 mi NW 17.3 mph 26.5 mph N/A   Mostly Cloudy
9:35 PM 46.4 °F 41.1 °F 21.2 °F 37% 29.70 in 10.0 mi NW 11.5 mph 16.1 mph N/A   Overcast
9:55 PM 46.4 °F 39.8 °F 17.6 °F 32% 29.70 in 10.0 mi NW 16.1 mph 29.9 mph N/A   Mostly Cloudy
10:15 PM 46.4 °F 41.5 °F 14.0 °F 27% 29.72 in 10.0 mi WNW 10.4 mph 21.9 mph N/A   Clear
10:35 PM 46.4 °F 42.9 °F 12.2 °F 25% 29.73 in 10.0 mi WNW 6.9 mph 16.1 mph N/A   Clear
10:55 PM 46.4 °F 41.5 °F 8.6 °F 22% 29.73 in 10.0 mi West 10.4 mph 26.5 mph N/A   Clear
11:15 PM 46.4 °F 40.4 °F 8.6 °F 22% 29.74 in 10.0 mi WNW 13.8 mph 24.2 mph N/A   Clear
11:35 PM 44.6 °F 36.9 °F 8.6 °F 23% 29.76 in 10.0 mi West 18.4 mph 24.2 mph N/A   Clear
11:55 PM 44.6 °F 38.8 °F 10.4 °F 25% 29.78 in 10.0 mi West 11.5 mph 20.7 mph N/A   Clear